Regional Weather Roundup
Issued by NWS

Home | Current Version | Previous Version | Graphics & Text | Print | Product List | Glossary Off
Versions: 1 2 3 4 5 6 7 8 9 10 11 12 13 14 15 16 17 18 19 20 21 22 23 24 25 26 27 28 29 30 31 32 33 34 35 36 37 38 39 40 41 42 43 44 45 46 47 48 49 50

000
ASUS43 KTOP 071159
RWRKS

WEATHER ROUNDUP FOR KANSAS
NATIONAL WEATHER SERVICE GOODLAND KS
600 AM CST WED DEC 07 2016

NOTE:  "FAIR" INDICATES FEW OR NO CLOUDS BELOW 12,000 FEET WITH NO
SIGNIFICANT WEATHER AND/OR OBSTRUCTIONS TO VISIBILITY.

KSZ001>006-013>018-027>032-041>047-071300-
NORTHWEST KANSAS

CITY           SKY/WX    TMP DP  RH WIND       PRES   REMARKS
GOODLAND       LGT SNOW  16  13  88 NE13      30.06R FOG     WCI   2
6HR MIN TEMP:  16; 6HR MAX TEMP:  24; 6HR PCP:  0.02;

HAYS           CLOUDY    24  13  62 NE17G24   30.15R WCI  11
HILL CITY      CLOUDY    21   9  59 NE15G21   30.19R WCI   8
6HR MIN TEMP:  21; 6HR MAX TEMP:  26;

RUSSELL        CLOUDY    23  13  65 NE12      30.16R WCI  12
6HR MIN TEMP:  23; 6HR MAX TEMP:  29;

$$

KSZ061>065-074>080-084>089-071300-
SOUTHWEST KANSAS

CITY           SKY/WX    TMP DP  RH WIND       PRES   REMARKS
DODGE CITY     CLOUDY    29  17  61 SE9       30.06R
6HR MIN TEMP:  20; 6HR MAX TEMP:  29;

ELKHART          N/A     14   3  61 E8          N/A
GARDEN CITY    CLOUDY    27  14  58 E10       30.04R WCI  17
6HR MIN TEMP:  22; 6HR MAX TEMP:  27;

GREAT BEND     CLOUDY    30  19  63 NE12      30.14R WCI  20
LIBERAL        CLOUDY    27  16  63 E14       30.01R WCI  15
$$

KSZ066>073-081>083-090>101-071300-
SOUTHEAST KANSAS

CITY           SKY/WX    TMP DP  RH WIND       PRES   REMARKS
CHANUTE        CLOUDY    33  18  53 E7        30.16R
6HR MIN TEMP:  30; 6HR MAX TEMP:  34;

COFFEYVILLE    CLOUDY    33  22  63 E7        30.17S
6HR MIN TEMP:  30; 6HR MAX TEMP:  34;

HUTCHINSON     CLOUDY    32  16  51 NE6       30.14R
6HR MIN TEMP:  30; 6HR MAX TEMP:  33;

MEDICINE LODGE   N/A     32  17  54 E7        30.11R
NEWTON         CLOUDY    30  20  66 E7        30.13R
PARSONS        CLOUDY    34  18  52 VRB3      30.18R
6HR MIN TEMP:  30; 6HR MAX TEMP:  35;

WICHITA INTL   CLOUDY    34  16  47 E12       30.13R WCI  25
6HR MIN TEMP:  34; 6HR MAX TEMP:  35;

WICHITA JABRA  CLOUDY    31  20  63 SE6       30.13R
6HR MIN TEMP:  30; 6HR MAX TEMP:  32;

WINFIELD       CLOUDY    34  16  47 E6        30.15R
6HR MIN TEMP:  30; 6HR MAX TEMP:  35;

$$

KSZ007>012-019>026-033>040-048>060-102>105-071300-
NORTHEAST KANSAS

CITY           SKY/WX    TMP DP  RH WIND       PRES   REMARKS
CONCORDIA      CLOUDY    23  12  62 N14       30.20R WCI  11
6HR MIN TEMP:  23; 6HR MAX TEMP:  29;

EMPORIA        CLOUDY    28  17  63 NE5       30.15R
6HR MIN TEMP:  26; 6HR MAX TEMP:  33;

LAWRENCE       CLOUDY    30  14  51 N5        30.18R
6HR MIN TEMP:  27; 6HR MAX TEMP:  32;

MANHATTAN      CLOUDY    27  15  61 N6        30.19R
6HR MIN TEMP:  24; 6HR MAX TEMP:  32;

OLATHE IND     CLOUDY    30  12  47 NE6       30.15S
6HR MIN TEMP:  30; 6HR MAX TEMP:  32;

OLATHE EXE     CLOUDY    30   9  41 NE12      30.15R WCI  20
6HR MIN TEMP:  30; 6HR MAX TEMP:  33;

SALINA         CLOUDY    28  14  55 N8        30.18R
6HR MIN TEMP:  28; 6HR MAX TEMP:  33;

TOPEKA BILLARD CLOUDY    29  14  53 NE8       30.18R
6HR MIN TEMP:  29; 6HR MAX TEMP:  31;

TOPEKA FORBES  CLOUDY    30  14  51 NE6       30.17R
6HR MIN TEMP:  30; 6HR MAX TEMP:  32;

$$



USA.gov is the U.S. government's official web portal to all federal, state and local government web resources and services.